Weather in Al Hudaydah

Yemen     14°47′04″N   42°58′35″E
temp.,
°C
wind,
m/s
gust,
m/s
humid.,
%
clouds,
%
prec.,
mm/h
press.,
hPa
HPBL,
m
17 april, sat
sat1700:00+30sw335099 0.0 100852
03:00+27sw338460 0.0 100768
06:00+27s45840 0.0 1010120
09:00+30ssw65632 0.0 1011696
12:00+31ssw985730 0.0 1010691
15:00+31ssw895583 0.0 1007504
18:00+29s7116299 0.0 1008388
21:00+28s357095 0.0 1010120
18 april, sun
sun1800:00+27s587021 0.0 1009150
03:00+27s71074100 0.0 1009332
06:00+26s687655 0.0 1011232
09:00+29ssw76615 0.0 1013718
12:00+31ssw8752100 0.0 1011736
15:00+31ssw885537 0.0 1008569
18:00+29s6858100 0.0 1009317
21:00+28s71166100 0.0 1011396
19 april, mon
mon1900:00+27s69755 0.0 1011289
03:00+27s8117068 0.0 1010335
06:00+26s710685 0.0 1011263
09:00+30s7748100 0.0 1013598
12:00+32ssw9942100 0.0 1012777
15:00+32ssw8104391 0.0 1009642
18:00+30s7105493 0.0 1009395
21:00+28sse611635 0.0 1010285
20 april, tue
tue2000:00+27s46755 0.0 1010122
03:00+27s58775 0.0 1009192
06:00+26s57740 0.0 1010151
09:00+31s54470 0.0 1011508
12:00+32sw75510 0.0 1010538
15:00+33sw66380 0.0 1006583
18:00+30s45500 0.0 1007169
21:00+29s22532 0.0 100814
21 april, wed
wed2100:00+28s11453 0.0 100811
03:00+27ssw34750 0.0 100746
06:00+26s23840 0.0 100837
09:00+32ssw21490 0.0 1010511
12:00+32ssw76530 0.0 1009450
15:00+34sw77410 0.0 1006473
18:00+30s45530 0.0 1007181
21:00+29ese11477 0.0 100811